User: anonymous   Login
Location: Cimarron National Grasslands
(37.1250°N, 101.7500°W)
Time: 01:24:27
(UTC-06:00)
Language:

Ariane Rocket - Orbit

View from above orbital plane
View from above orbital plane
View from above satellite
View from above satellite

Ground track
Ground track

The orbit data is extracted from the following two-line orbital elements,

1 23561U 95021B   14352.91075156  .00000589  00000-0  21197-3 0  9426
2 23561 098.7080 321.0644 0008081 080.2766 336.3657 14.37433083 30313
Epoch (UTC): 18 December 2014 21:51:28
Eccentricity: 0.0008081
inclination: 98.7080°
perigee height: 761 km
apogee height: 773 km
right ascension of ascending node: 321.0644°
argument of perigee: 80.2766°
revolutions per day: 14.37433083
mean anomaly at epoch: 336.3657°
orbit number at epoch: 3031

The dashed part of the orbit path shows where the satellite is in the earth's shadow,  

DLR